Regional Weather Roundup
Issued by NWS Albany, NY

Home | Current Version | Previous Version | Text Only | Print | Product List | Glossary On
Versions: 1 2 3 4 5 6 7 8 9 10 11 12 13 14 15 16 17 18 19 20 21 22 23 24 25 26 27
000
ASUS41 KALY 161910
RWRALY

NEW YORK STATE HOURLY WEATHER ROUNDUP
NATIONAL WEATHER SERVICE ALBANY NY
300 PM EDT WED APR 16 2014

NOTE: "FAIR" INDICATES FEW OR NO CLOUDS BELOW 12,000 FEET WITH NO
SIGNIFICANT WEATHER AND/OR NO OBSTRUCTIONS TO VISIBILITY.

NYZ032-033-038>043-046>054-057>066-NYZ062>081-162000-
EAST


CITY           SKY/WX    TMP DP  RH WIND       PRES   REMARKS
ALBANY         MOSUNNY   39  18  42 NW16G22   30.44R WCI  30
GLENS FALLS    SUNNY     37  16  42 N10G20    30.43R WCI  30
POUGHKEEPSIE   SUNNY     43  15  32 VRB6      30.42R
NEWBURGH       SUNNY     45  14  29 N12       30.42
MONTGOMERY     SUNNY     44  16  32 N10       30.41R
WHITE PLAINS   SUNNY     43  20  39 N16       30.39R
ISLIP          SUNNY     45  14  28 N24G32    30.37R
NEW YORK CITY  MOSUNNY   45  16  31 N14G23    30.40S
CENTRAL PARK   SUNNY     46  15  28 MISG      30.44R
$$

NYZ005>009-017-018-044>046-055-056-162000-
CENTRAL


CITY           SKY/WX    TMP DP  RH WIND       PRES   REMARKS
FULTON         SUNNY     33  14  45 N8G17     30.52S WCI  26
SYRACUSE       MOSUNNY   35  11  36 NW8G17    30.51S WCI  29
ROME           SUNNY     34  15  46 W10G21    30.50S WCI  26
ELMIRA         MOSUNNY   39  13  34 NE8       30.45F WCI  33
BINGHAMTON     MOSUNNY   33  16  49 NW12      30.41S WCI  24
MONTICELLO     SUNNY     36  19  51 NW12      30.40S WCI  27
$$

NYZ026>034-041>043-162000-
NORTH


CITY           SKY/WX    TMP DP  RH WIND       PRES   REMARKS
WATERTOWN      MOSUNNY   32  12  43 SW8       30.53S WCI  25
FORT DRUM      NOT AVBL
MASSENA        MOSUNNY   30  11  45 W12G20    30.51S WCI  20
SARANAC LAKE   MOSUNNY   24   9  52 W9        30.37S WCI  14
PLATTSBURGH    SUNNY     34  11  38 NW14G22   30.47R WCI  25
$$

NYZ001>004-010>016-019>021-162000-
WEST


CITY           SKY/WX    TMP DP  RH WIND       PRES   REMARKS
NIAGARA FALLS  PTSUNNY   33  21  61 SW12      30.49F WCI  24
BUFFALO        MOSUNNY   33  17  51 VRB3      30.49F
DUNKIRK        SUNNY     32  15  49 N8        30.51F WCI  25
JAMESTOWN      MOSUNNY   30  14  51 CALM      30.43F
WELLSVILLE     SUNNY     35  13  40 NE9       30.41R WCI  28
ROCHESTER      MOSUNNY   34  17  50 NE10      30.50F WCI  26
PENN YAN       SUNNY     35  15  44 NW8       30.48S WCI  29
$$

             KEY
       WCI = WIND CHILL INDEX
       VSB = VISIBILITY
       HX  = HEAT INDEX
$$



USA.gov is the U.S. government's official web portal to all federal, state and local government web resources and services.